Weather in Ochakov

Ukraine / Mykolaiv District     46˚36′50″N   31˚32′44″E
temp.,
°C
wind,
m/s
gust,
m/s
humid.,
%
clouds,
%
prec.,
mm/h
press.,
hPa
HPBL,
m
27 november, fri
fri2723:00+11˚s677873 0.0 1025799
02:00+11˚ssw777586 0.0 1024931
05:00+12˚ssw7875100 0.1 1023939
08:00+12˚ssw897267 0.1 1022874
11:00+11˚sw810750 0.0 1022868
14:00+11˚sw810710 0.0 1021800
17:00+12˚sw710760 0.0 1020845
20:00+12˚wsw58660 0.0 1020764
28 november, sat
sat2823:00+11˚wsw58610 0.0 1021754
02:00+9˚nw336323 0.0 1020236
05:00+9˚wnw2364100 0.0 1019235
08:00+7˚nw2267100 0.0 1019144
11:00+7˚nnw2267100 0.0 1019143
14:00+8˚nnw1168100 0.0 1018130
17:00+9˚e017240 0.0 1018138
20:00+10˚ne017563 0.0 1018114
29 november, sun
sun2923:00+10˚wsw3679100 0.0 1017439
02:00+11˚wsw576994 0.0 1017748
05:00+9˚nw326999 0.0 1017209
08:00+8˚nw2269100 0.0 1017184
11:00+7˚nnw4465100 0.0 1018259
14:00+8˚nnw4458100 0.0 1018417
17:00+8˚n5568100 0.0 1019482
20:00+7˚n6682100 0.0 1020389
30 november, mon
mon3023:00+6˚nne6683100 0.0 1020354
02:00+6˚nne6685100 0.0 1021339
05:00+6˚nne7785100 0.0 1020387
08:00+6˚nne7885100 0.0 1021369
11:00+7˚nne7885100 0.5 1021410
14:00+7˚n91086100 0.6 1021442
17:00+6˚n101189100 0.0 1022342
20:00+7˚n8987100 0.0 1023401
1 december, tue
tue123:00+7˚nne8889100 0.0 1023413
02:00+7˚nne898898 0.0 1022509
05:00+6˚nne898793 0.0 1022533
08:00+6˚nne788996 0.0 1023429
11:00+6˚nne6685100 0.1 1022508
14:00+7˚nne5581100 0.3 1022625
17:00+6˚ne5579100 0.1 1022585
20:00+6˚ne5477100 0.2 1022560